Weather History for Crestview, FL

Change the Weather History Date:

Monday, August 26, 2013

  Actual Average Record
Temperature  
Mean Temperature 78 °F -  
Max Temperature 88 °F - - ()
Min Temperature 68 °F - - ()
Cooling Degree Days 13    
Growing Degree Days 28 (Base 50)    
Moisture  
Dew Point 65 °F    
Average Humidity 66    
Maximum Humidity 88    
Minimum Humidity 40    
Precipitation  
Precipitation 0.00 in - - ()
Sea Level Pressure  
Sea Level Pressure 30.17 in    
Wind  
Wind Speed 6 mph (NE)    
Max Wind Speed 10 mph    
Max Gust Speed 20 mph    
Visibility 10 miles    
Events      
T = Trace of Precipitation, MM = Missing Value Source: NWS Daily Summary

Daily Weather History Graph

Daily Weather History Graph

Search for Another Location

Airport:

Trip Planner

Search our weather history database for the weather conditions in past years. The results will help you decide how hot, cold, wet, or windy it might be!

Date:

Astronomy

Aug. 26, 2013 Rise Set
Actual Time 6:19 AM CDT 7:15 PM CDT
Civil Twilight 5:54 AM CDT 7:40 PM CDT
Nautical Twilight 5:25 AM CDT 8:09 PM CDT
Astronomical Twilight 4:55 AM CDT 8:39 PM CDT
Moon 10:54 PM CDT (8/26) 11:52 AM CDT (8/26)
Length of Visible Light 13h 46m
Length of Day
12h 56m
Waning Gibbous, 66% of the Moon is Illuminated
Aug 26
Waning Gibbous
Aug 28
Last Quarter
Sep 5
New
Sep 12
First Quarter
Sep 19
Full

Hourly Weather History & Observations

Time (CDT) Temp. Heat Index Dew Point Humidity Pressure Visibility Wind Dir Wind Speed Gust Speed Precip Events Conditions
12:58 AM 74.5 °F - 68.4 °F 81% 30.20 in 10.0 mi NE 3.5 mph - N/A   Partly Cloudy
1:58 AM 74.8 °F - 66.4 °F 75% 30.19 in 10.0 mi NE 4.6 mph - N/A   Mostly Cloudy
2:58 AM 73.9 °F - 65.5 °F 75% 30.19 in 10.0 mi Variable 4.6 mph - N/A   Mostly Cloudy
3:58 AM 73.6 °F - 66.0 °F 77% 30.19 in 10.0 mi ENE 5.8 mph - N/A   Mostly Cloudy
4:58 AM 72.0 °F - 65.7 °F 80% 30.19 in 10.0 mi NE 3.5 mph - N/A   Overcast
5:58 AM 69.6 °F - 64.6 °F 84% 30.19 in 10.0 mi NNE 3.5 mph - N/A   Clear
6:58 AM 68.7 °F - 64.2 °F 86% 30.19 in 10.0 mi NE 4.6 mph - N/A   Clear
7:58 AM 72.0 °F - 64.2 °F 77% 30.21 in 10.0 mi ENE 6.9 mph - N/A   Clear
8:55 AM 76.5 °F - 65.1 °F 68% 30.22 in 10.0 mi East 9.2 mph 17.3 mph N/A   Scattered Clouds
8:58 AM 76.5 °F - 65.1 °F 68% 30.22 in 10.0 mi ENE 9.2 mph 17.3 mph N/A   Clear
9:55 AM 80.4 °F 82.3 °F 65.3 °F 60% 30.21 in 10.0 mi East 10.4 mph - N/A   Scattered Clouds
10:55 AM 82.9 °F 84.8 °F 65.5 °F 55% 30.22 in 10.0 mi East 10.4 mph - N/A   Scattered Clouds
11:55 AM 84.7 °F 86.1 °F 64.4 °F 50% 30.21 in 10.0 mi NE 10.4 mph - N/A   Scattered Clouds
12:55 PM 86.5 °F 87.6 °F 63.3 °F 46% 30.19 in 10.0 mi NNE 8.1 mph - N/A   Scattered Clouds
1:55 PM 86.9 °F 87.5 °F 62.4 °F 44% 30.17 in 10.0 mi NE 8.1 mph 19.6 mph N/A   Scattered Clouds
2:55 PM 88.0 °F 87.9 °F 61.2 °F 40% 30.14 in 10.0 mi NNE 5.8 mph - N/A   Scattered Clouds
3:55 PM 87.8 °F 88.2 °F 62.1 °F 42% 30.13 in 10.0 mi NNE 9.2 mph - N/A   Scattered Clouds
4:55 PM 86.9 °F 87.5 °F 62.4 °F 44% 30.13 in 10.0 mi North 6.9 mph - N/A   Mostly Cloudy
5:55 PM 85.6 °F 86.6 °F 63.5 °F 47% 30.12 in 10.0 mi NNE 8.1 mph - N/A   Mostly Cloudy
6:55 PM 81.3 °F 83.2 °F 65.3 °F 58% 30.10 in 10.0 mi NNE 4.6 mph - N/A   Mostly Cloudy
7:55 PM 76.3 °F - 65.1 °F 68% 30.13 in 10.0 mi NNE 3.5 mph - N/A   Mostly Cloudy
8:55 PM 72.7 °F - 65.3 °F 78% 30.13 in 10.0 mi NE 2.3 mph - N/A   Scattered Clouds
9:55 PM 71.8 °F - 64.2 °F 77% 30.13 in 10.0 mi NE 3.5 mph - N/A   Scattered Clouds
10:55 PM 71.1 °F - 64.0 °F 78% 30.16 in 10.0 mi NE 2.3 mph - N/A   Scattered Clouds
11:55 PM 68.2 °F - 64.4 °F 88% 30.14 in 10.0 mi NNE 1.2 mph - N/A   Partly Cloudy